Sister Bay, Wisconsin, United States (54234)
Lat: 45.19N, Lon: 87.12W
Wx Zone: WIZ022
Local Info
Past Weather Observations for Sunday, April 12, 2015

NOTE: This archive is for the closest National Weather Service station to Sister Bay. Information may differ from the station used for current weather conditions.

Click here for Long-term Archive

Time Weather Temperature Dewpoint Humidity Pressure Winds Precip Visibility
23:50
Clear
48°F / 9°C 39°F / 4°C 71% 29.8 in
(1009 mb)
S 9.2 mph
(S 15 kph)
- 10SM
23:30
Clear
48°F / 9°C 41°F / 5°C 76% 29.83 in
(1010 mb)
S 10.4 mph
(S 17 kph)
- 10SM
23:10
Clear
50°F / 10°C 41°F / 5°C 71% 29.83 in
(1010 mb)
S 11.5 mph
(S 19 kph)
- 10SM
22:50
Clear
50°F / 10°C 41°F / 5°C 71% 29.83 in
(1010 mb)
S 13.8 mph
(S 22 kph)
- 10SM
22:30
Clear
52°F / 11°C 41°F / 5°C 67% 29.86 in
(1011 mb)
S 16.1 mph
(S 26 kph)
- 10SM
22:10
Clear
52°F / 11°C 41°F / 5°C 67% 29.86 in
(1011 mb)
S 17.3 mph
(S 28 kph)
- 10SM
21:50
Clear
54°F / 12°C 41°F / 5°C 63% 29.86 in
(1011 mb)
S 15 mph
(S 24 kph)
- 10SM
21:30
Clear
54°F / 12°C 41°F / 5°C 63% 29.86 in
(1011 mb)
S 15 mph
(S 24 kph)
- 10SM
21:10
Clear
54°F / 12°C 41°F / 5°C 63% 29.86 in
(1011 mb)
S 17.3 mph
(S 28 kph)
- 10SM
20:50
Clear
54°F / 12°C 41°F / 5°C 63% 29.86 in
(1011 mb)
S 15 mph
(S 24 kph)
- 10SM
20:30
Clear
55°F / 13°C 41°F / 5°C 59% 29.86 in
(1011 mb)
SSE 15 mph
(SSE 24 kph)
- 10SM
20:10
Clear
55°F / 13°C 41°F / 5°C 59% 29.86 in
(1011 mb)
S 16.1 mph
(S 26 kph)
- 10SM
19:50
Clear
57°F / 14°C 41°F / 5°C 55% 29.83 in
(1010 mb)
SSE 20.7 mph
(SSE 33 kph)
- 10SM
19:30
Clear
57°F / 14°C 41°F / 5°C 55% 29.83 in
(1010 mb)
SSE 18.4 mph
(SSE 30 kph)
- 10SM
19:10
Clear
57°F / 14°C 41°F / 5°C 55% 29.83 in
(1010 mb)
S 19.6 mph
(S 32 kph)
- 10SM
18:50
Clear
59°F / 15°C 41°F / 5°C 51% 29.83 in
(1010 mb)
S 19.6 mph
(S 32 kph)
- 10SM
18:30
Partly Cloudy
61°F / 16°C 41°F / 5°C 48% 29.83 in
(1010 mb)
SSE 16.1 mph
(SSE 26 kph)
- 10SM
18:10
Mostly Cloudy
63°F / 17°C 41°F / 5°C 45% 29.8 in
(1009 mb)
SSE 23 mph
(SSE 37 kph)
- 10SM
17:50
Overcast
64°F / 18°C 45°F / 7°C 49% 29.8 in
(1009 mb)
S 20.7 mph
(S 33 kph)
- 10SM
17:30
Mostly Cloudy
64°F / 18°C 45°F / 7°C 49% 29.8 in
(1009 mb)
SSE 19.6 mph
(SSE 32 kph)
- 10SM
17:10
Clear
66°F / 19°C 43°F / 6°C 43% 29.83 in
(1010 mb)
SSE 21.9 mph
(SSE 35 kph)
- 10SM
16:50
Partly Cloudy
66°F / 19°C 41°F / 5°C 40% 29.83 in
(1010 mb)
SSE 18.4 mph
(SSE 30 kph)
- 10SM
16:30
Partly Cloudy
68°F / 20°C 39°F / 4°C 35% 29.83 in
(1010 mb)
SW 23 mph
(SW 37 kph)
- 10SM
16:10
Mostly Cloudy
68°F / 20°C 37°F / 3°C 33% 29.83 in
(1010 mb)
S 20.7 mph
(S 33 kph)
- 10SM
15:50
Partly Cloudy
70°F / 21°C 37°F / 3°C 31% 29.83 in
(1010 mb)
SW 23 mph
(SW 37 kph)
- 10SM
15:30
Partly Cloudy
70°F / 21°C 41°F / 5°C 35% 29.83 in
(1010 mb)
SSE 20.7 mph
(SSE 33 kph)
- 10SM
15:10
Partly Cloudy
70°F / 21°C 41°F / 5°C 35% 29.83 in
(1010 mb)
SSE 24.2 mph
(SSE 39 kph)
- 10SM
14:50
Mostly Cloudy
70°F / 21°C 43°F / 6°C 38% 29.83 in
(1010 mb)
SSE 18.4 mph
(SSE 30 kph)
- 10SM
14:30
Partly Cloudy
70°F / 21°C 43°F / 6°C 38% 29.86 in
(1011 mb)
SW 21.9 mph
(SW 35 kph)
- 10SM
14:10
Partly Cloudy
68°F / 20°C 43°F / 6°C 40% 29.86 in
(1011 mb)
SW 18.4 mph
(SW 30 kph)
- 10SM
13:50
Clear
68°F / 20°C 43°F / 6°C 40% 29.86 in
(1011 mb)
S 21.9 mph
(S 35 kph)
- 10SM
13:30
Clear
68°F / 20°C 43°F / 6°C 40% 29.89 in
(1012 mb)
S 24.2 mph
(S 39 kph)
- 10SM
13:10
Clear
68°F / 20°C 43°F / 6°C 40% 29.89 in
(1012 mb)
SSE 26.5 mph
(SSE 43 kph)
- 10SM
12:50
Clear
68°F / 20°C 41°F / 5°C 38% 29.89 in
(1012 mb)
SW 23 mph
(SW 37 kph)
- 10SM
12:30
Clear
68°F / 20°C 41°F / 5°C 38% 29.89 in
(1012 mb)
SSE 26.5 mph
(SSE 43 kph)
- 10SM
12:10
Partly Cloudy
68°F / 20°C 41°F / 5°C 38% 29.92 in
(1013 mb)
SSE 20.7 mph
(SSE 33 kph)
- 10SM
11:50
Clear
68°F / 20°C 43°F / 6°C 40% 29.92 in
(1013 mb)
SW 20.7 mph
(SW 33 kph)
- 10SM
11:30
Clear
66°F / 19°C 41°F / 5°C 40% 29.92 in
(1013 mb)
S 20.7 mph
(S 33 kph)
- 10SM
11:10
Clear
66°F / 19°C 41°F / 5°C 40% 29.92 in
(1013 mb)
S 20.7 mph
(S 33 kph)
- 10SM
10:50
Clear
66°F / 19°C 41°F / 5°C 40% 29.95 in
(1014 mb)
S 19.6 mph
(S 32 kph)
- 10SM
10:30
Clear
64°F / 18°C 39°F / 4°C 40% 29.95 in
(1014 mb)
S 18.4 mph
(S 30 kph)
- 10SM
10:10
Clear
63°F / 17°C 37°F / 3°C 39% 29.95 in
(1014 mb)
SSE 15 mph
(SSE 24 kph)
- 10SM
09:50
Clear
63°F / 17°C 37°F / 3°C 39% 29.95 in
(1014 mb)
S 16.1 mph
(S 26 kph)
- 10SM
09:30
Clear
61°F / 16°C 37°F / 3°C 42% 29.98 in
(1015 mb)
S 15 mph
(S 24 kph)
- 10SM
09:10
Clear
59°F / 15°C 37°F / 3°C 45% 29.98 in
(1015 mb)
S 12.7 mph
(S 20 kph)
- 10SM
08:50
Clear
57°F / 14°C 37°F / 3°C 48% 29.98 in
(1015 mb)
S 11.5 mph
(S 19 kph)
- 10SM
08:30
Clear
55°F / 13°C 37°F / 3°C 51% 29.98 in
(1015 mb)
SSE 12.7 mph
(SSE 20 kph)
- 10SM
08:10
Clear
52°F / 11°C 37°F / 3°C 58% 30.01 in
(1016 mb)
S 8.1 mph
(S 13 kph)
- 10SM
07:50
Clear
50°F / 10°C 36°F / 2°C 58% 30.01 in
(1016 mb)
S 9.2 mph
(S 15 kph)
- 10SM
07:30
Clear
48°F / 9°C 36°F / 2°C 62% 30.01 in
(1016 mb)
S 6.9 mph
(S 11 kph)
- 10SM
07:10
Clear
46°F / 8°C 34°F / 1°C 62% 30.01 in
(1016 mb)
S 8.1 mph
(S 13 kph)
- 10SM
06:50
Clear
45°F / 7°C 34°F / 1°C 66% 30.04 in
(1017 mb)
S 8.1 mph
(S 13 kph)
- 10SM
06:30
Clear
43°F / 6°C 32°F / 0°C 66% 30.04 in
(1017 mb)
S 9.2 mph
(S 15 kph)
- 10SM
06:10
Clear
39°F / 4°C 32°F / 0°C 75% 30.04 in
(1017 mb)
SSE 8.1 mph
(SSE 13 kph)
- 10SM
05:50
Clear
37°F / 3°C 30°F / -1°C 75% 30.04 in
(1017 mb)
S 8.1 mph
(S 13 kph)
- 10SM
05:30
Clear
37°F / 3°C 30°F / -1°C 75% 30.04 in
(1017 mb)
S 8.1 mph
(S 13 kph)
- 10SM
05:10
Clear
36°F / 2°C 30°F / -1°C 81% 30.04 in
(1017 mb)
S 6.9 mph
(S 11 kph)
- 10SM
04:50
Clear
36°F / 2°C 30°F / -1°C 81% 30.04 in
(1017 mb)
S 6.9 mph
(S 11 kph)
- 10SM
04:30
Clear
37°F / 3°C 30°F / -1°C 75% 30.04 in
(1017 mb)
S 8.1 mph
(S 13 kph)
- 10SM
04:10
Clear
39°F / 4°C 30°F / -1°C 70% 30.04 in
(1017 mb)
S 8.1 mph
(S 13 kph)
- 10SM
03:50
Clear
37°F / 3°C 30°F / -1°C 75% 30.04 in
(1017 mb)
S 8.1 mph
(S 13 kph)
- 10SM
03:30
Clear
37°F / 3°C 30°F / -1°C 75% 30.04 in
(1017 mb)
S 8.1 mph
(S 13 kph)
- 10SM
03:10
Clear
37°F / 3°C 30°F / -1°C 75% 30.04 in
(1017 mb)
S 8.1 mph
(S 13 kph)
- 10SM
02:50
Clear
37°F / 3°C 30°F / -1°C 75% 30.04 in
(1017 mb)
S 8.1 mph
(S 13 kph)
- 10SM
02:30
Clear
39°F / 4°C 30°F / -1°C 70% 30.04 in
(1017 mb)
S 6.9 mph
(S 11 kph)
- 10SM
02:10
Clear
39°F / 4°C 30°F / -1°C 70% 30.04 in
(1017 mb)
S 8.1 mph
(S 13 kph)
- 10SM
01:50
Clear
39°F / 4°C 30°F / -1°C 70% 30.04 in
(1017 mb)
S 8.1 mph
(S 13 kph)
- 10SM
01:30
Clear
39°F / 4°C 30°F / -1°C 70% 30.04 in
(1017 mb)
S 6.9 mph
(S 11 kph)
- 10SM
01:10
Clear
39°F / 4°C 30°F / -1°C 70% 30.04 in
(1017 mb)
S 6.9 mph
(S 11 kph)
- 10SM
00:50
Clear
41°F / 5°C 32°F / 0°C 70% 30.04 in
(1017 mb)
S 5.8 mph
(S 9 kph)
- 10SM
00:30
Clear
41°F / 5°C 30°F / -1°C 66% 30.04 in
(1017 mb)
S 6.9 mph
(S 11 kph)
- 10SM
00:10
Clear
41°F / 5°C 32°F / 0°C 70% 30.04 in
(1017 mb)
SSE 6.9 mph
(SSE 11 kph)
- 10SM
Time Weather Temperature Dewpoint Humidity Pressure Winds Precip Visibility


Weather for websites

WeatherForYou.com, LLC is not responsible for any damages or problems caused by this service. Current weather conditions are obtained from the closest station including government and personal stations which may have varying degrees of accuracy. Weather forecasts are derived from the NOAA NDFD. Like all things, this site belongs to Jesus Christ... He just trusts me to maintain it. If you have any questions or comments email webmaster@weatherforyou.com

Copyright © 2015, WeatherForYou.com LLC. All rights reserved.